Capitalizator.

Capitalize Yourself: Right Data. Real Growth.

Sector Analysis

Savings Institutions, Not Federally Chartered

Standard Industrial Classification: SIC 6036

Industry Insider Sentiment Analysis

The Savings Institutions, Not Federally Chartered sector (SIC 6036) acts as a critical barometer for broader economic health. Our real-time monitoring reveals total transactions. Monitoring "cluster buying" is one of the most reliable leading indicators for future sector performance. By analyzing aggregate data across this specific Standard Industrial Classification, investors can filter out individual company volatility and identify high-conviction trends. When multiple directors and officers within the same industry move capital simultaneously, it often signals an upcoming sector-wide revaluation or a fundamental shift in supply chain dynamics that has yet to be recognized by the broader public market.

Filing Date Trade Date Ticker Company Reporting Person Relationship Type Price Qty Total, $ Owned After
2010-03-12 23:36 2010-03-11 BHLB Beacon Financial Corp DIMOCK RODNEY C Director BUY $18.30 600 $10,977 3,400
2010-03-12 03:31 2010-03-09 NYB FLAGSTAR BANK, NATIONAL ASSOCIATION TSIMBINOS JOHN M Director SELL $16.25 75,000 $1,218,795 75,000
2010-03-12 03:31 2010-03-09 NYB FLAGSTAR BANK, NATIONAL ASSOCIATION KUPFERBERG MAX L Director SELL $16.07 20,000 $321,480 725,260
2010-03-11 23:55 2010-03-10 BHLB Beacon Financial Corp THURSTON CORYDON L Director BUY $18.31 500 $9,153 13,441
2010-03-10 02:28 2010-03-06 HFWA HERITAGE FINANCIAL CORP /WA/ JENSEN DARYL D Director SELL $14.75 1,036 $15,281 128,448
2010-03-04 23:56 2010-03-04 QNTO QUAINT OAK BANCORP, INC. AUGUSTINE JOHN J Director, Officer BUY $9.25 500 $4,625 9,400
2010-03-04 18:37 2010-02-24 QNTO QUAINT OAK BANCORP, INC. CLARKE JAMES J Director BUY $9.03 500 $4,515 7,277
2010-03-02 18:17 2010-03-01 QNTO QUAINT OAK BANCORP, INC. STRONG ROBERT T Director, Officer BUY $9.00 200 $1,800 8,200
2010-03-02 02:11 2010-02-26 BHLB Beacon Financial Corp DAVIES JOHN B Director BUY $17.98 108 $1,942 7,051
2010-02-26 00:09 2010-02-23 HFWA HERITAGE FINANCIAL CORP /WA/ RHODES DONALD V Officer SELL $14.71 5,000 $73,550 327,276
2010-02-19 00:47 2010-01-29 FBSI FIRST BANCSHARES INC /MO/ BREIDENTHAL ROBERT JACK JR Director BUY $8.00 6,000 $48,028 6,000
2010-02-18 22:30 2009-03-18 HFWA HERITAGE FINANCIAL CORP /WA/ Christensen Gary B Director BUY $10.25 1,000 $10,250 1,000
2010-02-18 22:30 2010-02-16 HFWA HERITAGE FINANCIAL CORP /WA/ RHODES DONALD V Officer SELL $14.20 3,000 $42,600 332,276
2010-02-18 04:05 2010-02-12 NYB FLAGSTAR BANK, NATIONAL ASSOCIATION TSIMBINOS JOHN M Director SELL $15.63 50,000 $781,250 150,000
2010-02-13 01:25 2009-06-10 SMBC SOUTHERN MISSOURI BANCORP, INC. Robison Dennis C Director BUY $9.84 1,876 $18,458 5,411
2010-02-13 01:35 2010-02-10 HFWA HERITAGE FINANCIAL CORP /WA/ RHODES DONALD V Officer SELL $14.09 17,000 $239,469 335,276
2010-02-09 19:24 2010-02-08 BHLB Beacon Financial Corp BOSSIDY LAWRENCE A Director BUY $16.90 10,000 $169,025 69,518
2010-02-05 18:26 2010-02-02 BHLB Beacon Financial Corp Farrell David B Director BUY $17.05 3,000 $51,150 10,502
2010-02-06 00:13 2010-02-04 HFWA HERITAGE FINANCIAL CORP /WA/ BROADHEAD MICHAEL Officer SELL $14.13 6,891 $97,335 36,262
2010-02-05 00:22 2010-02-04 QNTO QUAINT OAK BANCORP, INC. AUGUSTINE JOHN J Director, Officer BUY $8.85 500 $4,425 8,900
2010-02-05 02:18 2010-02-03 BHLB Beacon Financial Corp TEMPLETON D JEFFREY Director BUY $16.94 200 $3,388 16,621
2010-02-05 02:17 2010-02-03 BHLB Beacon Financial Corp Phelps David E Director BUY $16.84 300 $5,051 2,948
2010-02-05 02:16 2010-02-02 BHLB Beacon Financial Corp OLEKSAK MICHAEL J Officer BUY $17.35 1,750 $30,359 6,908
2010-02-05 02:15 2010-02-03 BHLB Beacon Financial Corp MAHONEY CORNELIUS D Director BUY $16.83 500 $8,413 47,769
2010-02-05 02:14 2010-02-02 BHLB Beacon Financial Corp DAVIES JOHN B Director BUY $16.80 3,000 $50,400 6,943
2010-02-03 17:43 2010-02-02 QNTO QUAINT OAK BANCORP, INC. STRONG ROBERT T Director, Officer BUY $8.85 500 $4,425 8,000
2010-02-03 20:54 2010-02-02 HFWA HERITAGE FINANCIAL CORP /WA/ RHODES DONALD V Officer SELL $14.04 14,682 $206,135 348,075
2010-01-26 02:15 2010-01-21 NYB FLAGSTAR BANK, NATIONAL ASSOCIATION TSIMBINOS JOHN M Director SELL $15.13 50,000 $756,250 200,000
2010-01-26 02:15 2010-01-21 NYB FLAGSTAR BANK, NATIONAL ASSOCIATION KUPFERBERG MAX L Director SELL $15.08 15,000 $226,200 745,260
2010-01-07 04:23 2010-01-04 NYB FLAGSTAR BANK, NATIONAL ASSOCIATION KUPFERBERG MAX L Director SELL $14.36 10,000 $143,600 760,260
2009-12-31 03:17 2009-12-28 NYB FLAGSTAR BANK, NATIONAL ASSOCIATION TSIMBINOS JOHN M Director SELL $14.53 250,000 $3,633,475 250,000
2009-12-18 03:52 2009-12-17 HFWA HERITAGE FINANCIAL CORP /WA/ PATJENS GREGORY Officer SELL $13.52 5,500 $74,360 30,763
2009-12-18 03:35 2009-12-16 HFWA HERITAGE FINANCIAL CORP /WA/ RHODES DONALD V Officer SELL $13.58 17,322 $235,198 362,757
2009-12-17 01:40 2009-12-14 NYB FLAGSTAR BANK, NATIONAL ASSOCIATION FREDERICK WILLIAM C MD Director OPT+S $13.30 60,000 $798,216 306,756
2009-12-15 01:29 2009-12-14 QNTO QUAINT OAK BANCORP, INC. STRONG ROBERT T Director, Officer BUY $8.50 500 $4,250 7,500
2009-12-09 00:28 2009-12-07 FBSI FIRST BANCSHARES INC /MO/ SUTHERLAND THOMAS M Director BUY $8.70 2,400 $20,880 3,762
2009-12-09 00:28 2009-04-27 FBSI FIRST BANCSHARES INC /MO/ SUTHERLAND THOMAS M Director SELL $8.32 1 $8 1,006
2009-12-02 20:33 2009-12-01 QNTO QUAINT OAK BANCORP, INC. AUGUSTINE JOHN J Director, Officer BUY $8.40 600 $5,040 8,400
2009-11-25 22:11 2009-11-25 HBCP HOME BANCORP, INC. SUTTON SCOTT T Officer BUY $12.15 2,000 $24,300 29,233
2009-11-25 20:37 2009-11-24 QNTO QUAINT OAK BANCORP, INC. STRONG ROBERT T Director, Officer BUY $8.25 500 $4,125 7,000
2009-11-25 21:40 2009-11-24 TSBK TIMBERLAND BANCORP INC PARKER JON C Director BUY $4.24 1,000 $4,240 49,553
2009-11-24 01:26 2009-11-20 TSBK TIMBERLAND BANCORP INC Goldberg Larry David Director BUY $3.60 2,000 $7,200 2,000
2009-11-24 01:19 2009-11-20 TSBK TIMBERLAND BANCORP INC MASON JAMES CRAIG Director BUY $4.00 1,000 $4,000 20,287
2009-11-19 00:37 2009-11-17 SMBC SOUTHERN MISSOURI BANCORP, INC. Love Charles R Director BUY $11.00 100 $1,100 5,050
2009-11-19 00:05 2009-11-16 SMBC SOUTHERN MISSOURI BANCORP, INC. Brooks Rebecca J Director BUY $11.25 500 $5,625 5,250
2009-11-12 18:01 2009-11-10 TSBK TIMBERLAND BANCORP INC MASON JAMES CRAIG Director BUY $4.40 1,000 $4,400 19,287
2009-11-07 01:10 2009-11-05 QNTO QUAINT OAK BANCORP, INC. CLARKE JAMES J Director BUY $8.25 500 $4,125 6,777
2009-11-05 19:21 2009-11-03 HBCP HOME BANCORP, INC. Bourgeois Richard J Director BUY $12.03 11,750 $141,353 54,600
2009-09-16 00:28 2009-09-10 SMBC SOUTHERN MISSOURI BANCORP, INC. SCHALK SAMMY A Director BUY $11.43 1,149 $13,131 30,549
2009-09-12 00:07 2009-09-10 BHLB Beacon Financial Corp Altes Wallace W Director BUY $23.44 1,000 $23,437 6,449
SHOW ENTRIES

Sector-Wide Insider Alpha

Analyzing insider movements across the Savings Institutions, Not Federally Chartered sector provides a macro-view of executive conviction. When multiple leaders in different companies within the same SIC code (6036) simultaneously buy shares, it often indicates an industry-wide undervaluation or a positive shift in market cycles.

SEC Filings in Savings Institutions, Not Federally Chartered

Every transaction in the Savings Institutions, Not Federally Chartered industry is reported via Form 4 disclosures. By filtering these filings by industry, investors can detect institutional-scale sentiment shifts before they are reflected in broader market indices, following the capital flow of those with intimate industry knowledge.

UNDERSTANDING THE DATA

FILING DATE: The date and time when the transaction was reported to the SEC. This is when the public first receives the information.

TRADE DATE: The actual day the insider executed the purchase or sale in the market.

INDUSTRY: The specific market sector the company operates in. Useful for identifying broader institutional capital flows across sectors.

OWNED AFTER: The total number of shares held by the insider following the transaction. This highlights the insider's remaining conviction in the company.

CHANGE %: The percentage increase or decrease of the insider's total position. Large percentage changes often carry more weight than the dollar amount alone.

TRADE TYPES DEFINITIONS

BUY: An open market purchase. Typically indicates an insider's belief that the stock is undervalued or poised for growth.

SELL: An open market sale. While often used for diversification or liquidity, large or unexpected sales can be a warning signal.

OPT+S (OPTION EXERCISE & SALE): This occurs when an insider exercises their stock options and sells them immediately. Often part of a structured compensation plan.